Weather in Suhag

Egypt     26°33′05″N   31°41′53″E
temp.,
°C
wind,
m/s
gust,
m/s
humid.,
%
clouds,
%
prec.,
mm/h
press.,
hPa
HPBL,
m
27 january, wed
wed2723:00+11nw334053 0.0 101624
02:00+9nw234543 0.0 101423
05:00+8nw2251100 0.0 101422
08:00+14nw1132100 0.0 101450
11:00+21sw1220100 0.0 1015673
14:00+26wnw561199 0.0 10121614
17:00+22nw4413100 0.0 101370
20:00+13nw232950 0.0 101423
28 january, thu
thu2823:00+12wnw23310 0.0 101624
02:00+11nw58280 0.0 1016130
05:00+8nw58770 0.0 1017138
08:00+10nw68780 0.0 1019360
11:00+18nnw78350 0.0 10191005
14:00+20nw67210 0.0 10171469
17:00+17nw68220 0.0 1016393
20:00+10nw34370 0.0 101933
29 january, fri
fri2923:00+7nw23480 0.0 101922
02:00+6wnw23500 0.0 101922
05:00+4nw00650 0.0 101922
08:00+11se22340 0.0 1020104
11:00+19wnw810270 0.0 10201686
14:00+20wnw911280 0.0 10181809
17:00+17nw710270 0.0 1019924
20:00+10nw46480 0.0 102289
30 january, sat
sat3023:00+6nw34600 0.0 102430
02:00+4nw23600 0.0 102428
05:00+3nw23710 0.0 102322
08:00+7nw22580 0.0 1024123
11:00+16nnw46320 0.0 10231095
14:00+20nw55250 0.0 10211407
17:00+18nw57300 0.0 1020228
20:00+11nw34460 0.0 102231
31 january, sun
sun3123:00+9nw34570 0.0 102234
02:00+5nnw12720 0.0 102122
05:00+4nnw11770 0.0 102022
08:00+11wsw00450 0.0 102142
11:00+19nw12250 0.0 1020770
14:00+23nw22150 0.0 10171256
17:00+21wnw34170 0.0 101644
20:00+13nnw33330 0.0 101823